Location: Paris
(48.6709°N, 2.3750°E)
Time: 23:43:31
(UTC+02:00)

QB50P2 - Pass Details

Date: 02 July 2022
Orbit: 590 x 605 km, 97.9° (Epoch: 07 August)

Event Time Altitude Azimuth Distance (km) Brightness Sun altitude
Rises 03:51:16 0° 8° (N) 2,860 ? -13.7°
Reaches altitude 10° 03:53:29 10° 3° (N) 1,955 ? -13.5°
Maximum altitude 03:57:34 48° 290° (WNW) 797 ? -13.2°
Enters shadow 04:00:17 20° 223° (SW) 1,430 ? -13.0°
